Biloxi, MS

10:42 PM CDT on May 25, 2017 (GMT -0500)
Keesler Air Force Base

Weather History for KBIX - September, 2013

Change the Weather History Date:

Wednesday, September 4, 2013

  Actual Average Record
Temperature  
Mean Temperature 81 °F -  
Max Temperature 90 °F 88 °F 95 °F (1954)
Min Temperature 73 °F 73 °F 60 °F (1952)
Cooling Degree Days 16    
Growing Degree Days 31 (Base 50)    
Moisture  
Dew Point 73 °F    
Average Humidity 80    
Maximum Humidity 94    
Minimum Humidity 62    
Precipitation  
Precipitation 0.00 in - - ()
Sea Level Pressure  
Sea Level Pressure 30.02 in    
Wind  
Wind Speed 6 mph (East)    
Max Wind Speed 10 mph    
Max Gust Speed -    
Visibility 10 miles    
Events      
Averages and records for this station are not official NWS values.
T = Trace of Precipitation, MM = Missing Value Source: NWS Daily Summary

Daily Weather History Graph

Daily Weather History Graph

Search for Another Location

Airport or City:

Trip Planner

Search our weather history database for the weather conditions in past years. The results will help you decide how hot, cold, wet, or windy it might be!

Date:

Astronomy

Sep. 04, 2013 Rise Set
Actual Time 6:34 AM CDT 7:14 PM CDT
Civil Twilight 6:09 AM CDT 7:38 PM CDT
Nautical Twilight 5:41 AM CDT 8:07 PM CDT
Astronomical Twilight 5:11 AM CDT 8:36 PM CDT
Moon 5:45 AM CDT (9/4) 6:36 PM CDT (9/4)
Length of Visible Light 13h 29m
Length of Day
12h 40m
Waning Crescent, 1% of the Moon is Illuminated
Sep 4
Waning Crescent
Sep 5
New
Sep 12
First Quarter
Sep 19
Full
Sep 26
Last Quarter

Hourly Weather History & Observations

Time (CDT) Temp. Heat Index Dew Point Humidity Pressure Visibility Wind Dir Wind Speed Gust Speed Precip Events Conditions
12:58 AM 74.3 °F - 71.6 °F 91% 29.98 in 10.0 mi NNE 5.8 mph - N/A   Clear
1:53 AM 73.4 °F - 69.8 °F 88% 29.97 in 10.0 mi NE 8.1 mph - N/A   Mostly Cloudy
1:58 AM 74.1 °F - 70.7 °F 89% 29.98 in 10.0 mi NE 8.1 mph - N/A   Mostly Cloudy
2:08 AM 73.4 °F - 69.8 °F 88% 29.97 in 10.0 mi ENE 6.9 mph - N/A   Scattered Clouds
2:43 AM 73.4 °F - 71.6 °F 94% 29.96 in 10.0 mi ENE 6.9 mph - N/A   Mostly Cloudy
2:48 AM 73.4 °F - 71.6 °F 94% 29.96 in 10.0 mi NE 6.9 mph - N/A   Scattered Clouds
2:58 AM 74.1 °F - 70.9 °F 90% 29.97 in 10.0 mi ENE 4.6 mph - N/A   Mostly Cloudy
3:13 AM 73.4 °F - 71.6 °F 94% 29.96 in 10.0 mi NE 5.8 mph - N/A   Mostly Cloudy
3:58 AM 73.8 °F - 71.1 °F 91% 29.97 in 10.0 mi NE 5.8 mph - N/A   Clear
4:58 AM 74.1 °F - 71.2 °F 91% 29.98 in 10.0 mi ENE 3.5 mph - N/A   Clear
5:58 AM 73.9 °F - 71.2 °F 91% 30.00 in 10.0 mi ENE 3.5 mph - N/A   Clear
6:58 AM 73.9 °F - 72.0 °F 93% 30.01 in 10.0 mi NNE 1.2 mph - N/A   Clear
7:58 AM 77.2 °F - 73.6 °F 89% 30.04 in 10.0 mi NE 3.5 mph - N/A   Clear
8:58 AM 81.9 °F 88.9 °F 75.9 °F 82% 30.06 in 10.0 mi ENE 2.3 mph - N/A   Clear
9:58 AM 84.9 °F 95.3 °F 77.0 °F 77% 30.07 in 10.0 mi Variable 2.3 mph - N/A   Clear
10:58 AM 88.7 °F 99.3 °F 75.6 °F 65% 30.08 in 10.0 mi South 6.9 mph - N/A   Clear
11:58 AM 88.7 °F 100.4 °F 76.3 °F 67% 30.08 in 10.0 mi Variable 5.8 mph - N/A   Partly Cloudy
12:58 PM 88.7 °F 99.3 °F 75.6 °F 65% 30.06 in 10.0 mi South 8.1 mph - N/A   Clear
1:58 PM 88.9 °F 98.6 °F 74.8 °F 63% 30.05 in 10.0 mi South 8.1 mph - N/A   Partly Cloudy
2:58 PM 89.1 °F 98.5 °F 74.7 °F 62% 30.03 in 10.0 mi South 6.9 mph - N/A   Clear
3:58 PM 86.4 °F 95.1 °F 74.7 °F 68% 30.01 in 10.0 mi SSW 10.4 mph - N/A   Clear
4:58 PM 85.5 °F 93.8 °F 74.8 °F 70% 30.03 in 10.0 mi South 6.9 mph - N/A   Clear
5:58 PM 85.1 °F 92.2 °F 73.6 °F 68% 30.03 in 10.0 mi South 6.9 mph - N/A   Clear
6:58 PM 84.2 °F 91.6 °F 74.1 °F 72% 30.03 in 10.0 mi SSW 6.9 mph - N/A   Partly Cloudy
7:58 PM 84.0 °F 91.2 °F 73.9 °F 72% 30.04 in 10.0 mi South 4.6 mph - N/A   Clear
8:58 PM 83.8 °F 91.1 °F 74.5 °F 73% 30.06 in 10.0 mi South 4.6 mph - N/A   Clear
9:58 PM 84.2 °F 91.2 °F 73.8 °F 71% 30.07 in 10.0 mi South 5.8 mph - N/A   Overcast
10:58 PM 83.8 °F 91.8 °F 75.0 °F 75% 30.07 in 10.0 mi SSE 4.6 mph - N/A   Scattered Clouds
11:58 PM 82.0 °F 88.1 °F 74.3 °F 77% 30.06 in 10.0 mi NE 3.5 mph - N/A   Clear